Orbital Elements at Epoch 2459200.5 (2020-Dec-17.0) TDB
Reference: JPL 24 (heliocentric ecliptic J2000)
Element | Value | Uncertainty (1-sigma) | Units |
e | .138850781348906 | 4.826e-08 | |
a | 2.298657721215657 | 6.6149e-09 | au |
q | 1.979487300571167 | 1.1064e-07 | au |
i | 4.115089824306451 | 2.982e-06 | deg |
node | 125.6130535902017 | 7.0538e-05 | deg |
peri | 255.1763984058365 | 7.14e-05 | deg |
M | 19.77453234337971 | 1.0524e-05 | deg |
tp | 2459130.578037430549 (2020-Oct-08.07803743) | 3.7198e-05 | TDB |
period | 1272.945730796496 3.49 | 5.4948e-06 1.504e-08 | d yr |
n | .2828085999980095 | 1.2208e-09 | deg/d |
Q | 2.617828141860147 | 7.5334e-09 | au |
|
| | Orbit Determination Parameters
Additional Information
|